Location: Bramevaque
(42.9773°N, 0.5757°E)
Time: 12:29:37
(UTC+00:00)

Okean O Rocket - Pass Details

Date: 15 May 2026
Orbit: 614 x 633 km, 98.0° (Epoch: 8 June)

Event Time Altitude Azimuth Distance (km) Brightness Sun altitude
Exits shadow 19:52:31 - 121° (ESE) 2,090 3.6 -6.9°
Reaches altitude 10° 19:52:53 10° 119° (ESE) 1,971 3.5 -6.9°
Maximum altitude 19:56:15 23° 67° (ENE) 1,315 3.0 -7.4°
Drops below altitude 10° 19:59:38 10° 14° (NNE) 1,983 4.4 -7.9°
Sets 20:02:10 0° 1° (N) 2,894 5.5 -8.3°
